Location: Aciu?a
(46.2833°N, 22.4500°E)
Time: 04:31:15
(UTC+00:00)

Cosmos 304 Rocket - Pass Details

Date: 25 October 2021
Orbit: 678 x 688 km, 74.0° (Epoch: 30 November)

Event Time Altitude Azimuth Distance (km) Brightness Sun altitude
Rises 16:16:40 0° 184° (S) 3,023 7.3 -9.3°
Reaches altitude 10° 16:19:01 10° 178° (S) 2,114 6.4 -9.7°
Maximum altitude 16:23:34 47° 105° (ESE) 904 4.0 -10.5°
Drops below altitude 10° 16:28:10 10° 32° (NNE) 2,136 6.0 -11.3°
Sets 16:30:32 0° 27° (NNE) 3,058 6.8 -11.7°
